• Processing (Info)

  • MPEC 2013-K51 : 2013 KH6

    The following Minor Planet Electronic Circular may be linked-to from your own Web pages, but must not otherwise be redistributed electronically.

    A form allowing access to any MPEC is at the bottom of this page.


    Read MPEC 2013-K50 Read MPEC 2013-L01


    M.P.E.C. 2013-K51                                Issued 2013 May 31, 16:53 UT
    
         The Minor Planet Electronic Circulars contain information on unusual
             minor planets and routine data on comets.  They are published
       on behalf of Commission 20 of the International Astronomical Union by the
              Minor Planet Center, Smithsonian Astrophysical Observatory,
                              Cambridge, MA 02138, U.S.A.
    
                 Prepared using the Tamkin Foundation Computer Network
    
                                  MPC@CFA.HARVARD.EDU
                URL https://www.minorplanetcenter.net/    ISSN 1523-6714
    
                                       2013 KH6
    
    Observations:
         K13K06H* C2013 05 30.33219 16 43 41.37 -07 35 57.2          17.4 VuEK051703
         K13K06H  C2013 05 30.33890 16 43 38.10 -07 34 10.8          17.6 VuEK051703
         K13K06H  C2013 05 30.34568 16 43 34.64 -07 32 21.8          17.3 VuEK051703
         K13K06H  C2013 05 30.38576 16 43 15.13 -07 21 42.7          17.8 VuEK051703
         K13K06H  C2013 05 30.38851 16 43 13.76 -07 20 59.3          17.6 VuEK051703
         K13K06H  C2013 05 30.38987 16 43 13.08 -07 20 37.8          17.5 VuEK051703
         K13K06H IC2013 05 30.41787 16 42 58.96 -07 13 11.4          17.6 VqEK051H06
         K13K06H IC2013 05 30.43077 16 42 52.82 -07 09 46.6          17.6 VqEK051H06
         K13K06H  C2013 05 30.43506 16 42 51.37 -07 08 38.2          17.5 VuEK051703
         K13K06H  C2013 05 30.43561 16 42 51.12 -07 08 30.0          17.6 VuEK051703
         K13K06H  C2013 05 30.43616 16 42 50.83 -07 08 20.9          17.4 VuEK051703
         K13K06H  C2013 05 30.43672 16 42 50.58 -07 08 11.6          17.6 VuEK051703
         K13K06H  C2013 05 30.43729 16 42 50.32 -07 08 02.7          17.8 VuEK051703
         K13K06H IC2013 05 30.44510 16 42 46.15 -07 05 57.9          18.2 VqEK051H06
         K13K06H  C2013 05 30.48628 16 42 41.07 -06 52 14.6          18.2 VoEK051E23
         K13K06H  C2013 05 30.49091 16 42 38.84 -06 51 01.8          18.9 VoEK051E23
         K13K06H  C2013 05 30.51029 16 42 29.52 -06 45 56.4          18.8 VoEK051E23
         K13K06H  C2013 05 30.51492 16 42 27.26 -06 44 44.0          18.8 VoEK051E23
         K13K06H  C2013 05 30.76479 16 40 30.18 -05 42 25.5          19.6 VoEK051300
         K13K06H  C2013 05 30.76643 16 40 29.37 -05 41 59.5          19.4 VoEK051300
         K13K06H  C2013 05 30.76773 16 40 28.81 -05 41 40.0          19.4 VoEK051300
         K13K06H  C2013 05 30.76903 16 40 28.21 -05 41 20.8          19.6 VoEK051300
         K13K06H  C2013 05 30.77033 16 40 27.58 -05 40 59.5          19.3 VoEK051300
         K13K06H KC2013 05 31.03837 16 38 39.57 -04 32 25.4          18.6 VqEK051C95
         K13K06H KC2013 05 31.04245 16 38 37.70 -04 31 23.6          18.5 VqEK051C95
         K13K06H KC2013 05 31.04664 16 38 35.78 -04 30 19.3          18.3 VqEK051C95
         K13K06H KC2013 05 31.06359 16 38 30.70 -04 25 27.6          18.6 VqEK051954
         K13K06H KC2013 05 31.06880 16 38 28.24 -04 24 08.3          18.6 VqEK051954
         K13K06H KC2013 05 31.07406 16 38 25.75 -04 22 47.4          18.4 VqEK051954
         K13K06H  C2013 05 31.14061 16 38 07.53 -04 05 57.0          19.6 RoEK051G48
         K13K06H  C2013 05 31.14193 16 38 06.90 -04 05 36.8          19.6 RoEK051G48
         K13K06H  C2013 05 31.14262 16 38 06.62 -04 05 26.8          19.6 RoEK051G48
         K13K06H  C2013 05 31.25935 16 37 13.77 -03 36 21.5          18.3  rEK051718
         K13K06H  C2013 05 31.26322 16 37 11.98 -03 35 23.1          18.1  rEK051718
         K13K06H  C2013 05 31.26708 16 37 10.15 -03 34 22.6          17.6  rEK051718
         K13K06H  C2013 05 31.27320 16 37 07.37 -03 32 34.6          18.5 RcEK051854
         K13K06H  C2013 05 31.27524 16 37 06.44 -03 32 04.1          18.4 RcEK051854
         K13K06H  C2013 05 31.27727 16 37 05.49 -03 31 32.3          18.4 RcEK051854
         K13K06H KC2013 05 31.28156 16 37 02.87 -03 30 28.8          18.5 RqEK051448
         K13K06H KC2013 05 31.28776 16 36 59.98 -03 28 55.1          18.4 RqEK051448
         K13K06H KC2013 05 31.29514 16 36 56.58 -03 27 03.9          18.1 RqEK051448
    
    Observer details:
    300 Bisei Spaceguard Center--BATTeRS.  Observers S. Okumura, N. Hashimoto.
        1.0-m f/3.0 reflector + CCD.
    448 Desert Moon Observatory.  Observer B. L. Stevens.  0.3-m
        Schmidt-Cassegrain + CCD.
    703 Catalina Sky Survey.  Observer A. Boattini.  Measurers A. Boattini,
        E. J. Christensen, A. R. Gibbs, A. D. Grauer, R. E. Hill, J. A. Johnson,
        R. A. Kowalski, S. M. Larson, R. H. McNaught, F. C. Shelly.  0.68-m
        Schmidt + CCD.
    718 Tooele.  Observer P. Wiggins.  0.35-m f/5.5 Schmidt-Cassegrain + CCD.
    854 Sabino Canyon Observatory, Tucson.  Observer J. E. McGaha.  0.36-m f/10.0
        Schmidt-Cassegrain + CCD.
    954 Teide Observatory.  Observer N. D. Diaz.  0.26-m f/11.6 reflector + CCD.
    C95 SATINO Remote Observatory, Haute Provence.  Observer J. Jahn.  0.60-m
        f/3.2 Newtonian reflector + CCD.
    E23 Arcadia.  Observer A. Hidas.  0.35-m Schmidt-Cassegrain + CCD.
    G48 Doc Greiner Research Obs., Rancho Hildalgo.  Observer M. Mills.  0.40-m
        f/10 Schmidt-Cassegrain + CCD.
    H06 iTelescope Observatory, Mayhill.  Observer J. Jahn.  0.51-m f/6.8
        astrograph + CCD + f/4.5 focal reducer.
    
    Orbital elements:
    2013 KH6                                                 Earth MOID = 0.0499 AU
    Epoch 2013 Apr. 18.0 TT = JDT 2456400.5                 MPC
    M 115.65599              (2000.0)            P               Q
    n   1.11212128     Peri.  195.40167     +0.15237580     -0.95724282
    a   0.9226450      Node   246.35102     +0.93276542     +0.22153260
    e   0.1607900      Incl.   15.57182     +0.32669602     -0.18603628
    P   0.89           H   23.6           G   0.15           U   7
    Residuals in seconds of arc
    130530 703  0.8-  0.1-    130530 E23  1.0+  0.3-    130531 954  0.0   0.3+
    130530 703  0.2-  0.7-    130530 E23  0.7+  0.3-    130531 G48  0.0   0.3+
    130530 703 (1.9-  0.2+)   130530 E23  0.5+  0.2+    130531 G48  0.7-  0.5+
    130530 703  0.2+  0.6+    130530 E23  0.0   0.2-    130531 G48  0.3-  0.0
    130530 703  0.3-  0.2+    130530 300  0.6+  0.4+    130531 718  0.8+  0.9-
    130530 703  0.5-  0.0     130530 300  0.2-  0.8+    130531 718  0.5+  0.8-
    130530 H06  0.2-  0.5+    130530 300  0.4+  0.0     130531 718  0.5-  1.5+
    130530 H06  0.5-  0.1-    130530 300  0.4+  1.1-    130531 854  0.3-  0.4-
    130530 703  0.1-  0.0     130530 300  0.1-  0.1-    130531 854  0.0   0.6-
    130530 703  0.0   0.5-    130531 C95  0.3-  0.6+    130531 854  0.2-  0.6+
    130530 703  0.4-  0.2-    130531 C95  0.2-  0.2-    130531 448  0.0   0.3-
    130530 703  0.1-  0.2+    130531 C95  0.0   0.1-    130531 448  0.2-  0.0
    130530 703  0.0   0.0     130531 954  0.0   0.2+    130531 448  0.2+  0.0
    130530 H06  0.5+  0.5+    130531 954  0.1+  0.2-
    
    Ephemeris:
    2013 KH6                 a,e,i = 0.92, 0.16, 16                  q = 0.7743
    Date    TT    R. A. (2000) Decl.     Delta      r     Elong.  Phase     V
    2013 05 01    22 06 09.7 -69 41 40   0.1310  1.0302    96.3    76.4    21.9
    ...
    2013 05 16    19 21 25.6 -60 04 46   0.07422 1.0527   122.4    54.2    20.0
    ...
    2013 05 24    17 40 33.6 -36 46 01   0.05394 1.0611   153.4    25.3    18.6
    ...
    2013 05 30    16 46 09.1 -09 03 16   0.05348 1.0658   166.5    12.8    18.1
    2013 05 31    16 38 58.3 -04 40 27   0.05491 1.0664   162.7    16.4    18.3
    2013 06 01    16 32 16.4 -00 33 05   0.05671 1.0670   158.5    20.4    18.5
    ...
    2013 06 07    16 00 46.7 +17 57 45   0.07349 1.0696   136.8    40.5    19.7
    ...
    2013 06 15    15 35 50.6 +30 12 00   0.1040  1.0709   119.5    55.6    20.9
    ...
    2013 06 30    15 17 08.7 +38 15 52   0.1657  1.0660   102.9    68.4    22.2
    
    A. U. Tomatic                (C) Copyright 2013 MPC           M.P.E.C. 2013-K51
    

    Read MPEC 2013-K50 Read MPEC 2013-L01


    MPEC number:

    Enter an MPEC number in one of the following forms:

    • 1997-B01 (the full form)
    • J97B01 (the packed version of the full form)
    • B01 (the abbreviated form)